Location: Moscow Pond
(43.6842°N, 73.2366°W)
Time: 02:02:40
(UTC+00:00)

Cosmos 2322 Rocket - Pass Details

Date: 08 November 2025
Orbit: 830 x 851 km, 71.0° (Epoch: 04 December)

Event Time Altitude Azimuth Distance (km) Brightness Sun altitude
Exits shadow 09:04:45 20° 353° (N) 1,879 3.9 -28.0°
Drops below altitude 10° 09:06:47 10° 8° (N) 2,479 4.7 -27.6°
Sets 09:09:32 0° 19° (NNE) 3,421 5.6 -27.1°
